Regional Weather Roundup
Issued by NWS

Home | Current Version | Previous Version | Graphics & Text | Print | Product List | Glossary On
Versions: 1 2 3 4 5 6 7 8 9 10 11 12 13 14 15 16 17 18 19 20 21 22 23 24 25 26 27 28 29 30 31 32 33 34 35 36 37 38 39 40 41 42 43 44 45
000
ASUS45 KTFX 040510
RWRMT
MONTANA REGIONAL WEATHER ROUNDUP
NATIONAL WEATHER SERVICE GREAT FALLS MT
1100 PM MDT MON AUG 03 2015

NOTE: "FAIR" INDICATES FEW OR NO CLOUDS BELOW 12000 FEET WITH NO
SIGNIFICANT WEATHER AND/OR OBSTRUCTIONS TO VISIBILITY.

MTZ001>007-043-040600-
WEST OF THE DIVIDE

CITY           SKY/WX    TMP DP  RH WIND       PRES   REMARKS
KALISPELL      CLOUDY    81  39  22 SW12      29.82R
MISSOULA       CLOUDY    77  36  22 N3        29.90R
BUTTE          PTCLDY    69  41  36 SW5       30.02R
MULLAN PASS    LGT RAIN  60  41  49 VRB5      30.08R
DEER LODGE       N/A     68  45  42 CALM      29.98R
EUREKA           N/A     82  43  24 SW8       29.81R
HAMILTON         N/A     75  43  31 SE7       29.90S
LIBBY            N/A     79  41  25 CALM      29.84R
PLAINS           N/A     81  44  26 CALM      29.88R
$$

MTZ008-052>055-040600-
SOUTHWEST MONTANA

CITY           SKY/WX    TMP DP  RH WIND       PRES   REMARKS
BOZEMAN        MOCLDY    74  45  35 SW8       29.94R
DILLON         CLOUDY    72  46  39 S18G24    30.01R
W YELLOWSTONE  CLOUDY    59  48  67 SW6       30.15F
$$

MTZ009-010-012-014-046-048-049-054-040600-
EAST SLOPES AND CENTRAL MONTANA

CITY           SKY/WX    TMP DP  RH WIND       PRES   REMARKS
CUT BANK       MOCLDY    77  45  32 SE13      29.81R
GREAT FALLS    MOCLDY    77  45  32 W10       29.82R
MALMSTROM AFB  MOCLDY    82  43  25 W16       29.81R
HELENA         MOCLDY    78  45  30 S8        29.86R
CONRAD           N/A     80  54  40 SW9       29.85S
$$

MTZ011-013-016-021-045-047-050-051-040600-
NORTH CENTRAL MONTANA

CITY           SKY/WX    TMP DP  RH WIND       PRES   REMARKS
HAVRE          PTCLDY    75  50  41 E17       29.78F
LEWISTOWN      MOCLDY    72  46  39 E12       29.91
CHINOOK          N/A     72  52  49 E10       29.82S
FORT BENTON      N/A     81  45  28 E20G26    29.76R
$$

MTZ017>020-022>027-061-062-040600-
NORTHEAST MONTANA

CITY           SKY/WX    TMP DP  RH WIND       PRES   REMARKS
GLASGOW        CLEAR     71  45  39 E14       29.89F
JORDAN           N/A     74  47  38 E12       29.89F
SIDNEY         CLEAR    N/A N/A N/A NW3       29.94F
WOLF POINT     PTCLDY    65  47  52 E5        29.93R
MALTA            N/A     71  49  45 NE6       29.84F
$$

MTZ028>42-056>058-040600-
SOUTHCENTRAL AND SOUTHEAST MONTANA

CITY           SKY/WX    TMP DP  RH WIND       PRES   REMARKS
BAKER          MOCLDY    66  50  56 SE8       29.97S
BILLINGS       CLOUDY    80  45  28 W14       29.89S
LIVINGSTON     MOCLDY    68  47  46 CALM      29.92F
MILES CITY     MOCLDY    80  51  36 SE8       29.90R
EKALAKA          N/A     68  50  52 SE7       29.97S
FORSYTH          N/A     73  48  40 NE5       29.87S
LAUREL           N/A     78  46  32 S10       29.91R
$$

REGIONAL REPORTS...DAKOTAS

CITY           SKY/WX    TMP DP  RH WIND       PRES   REMARKS
WILLISTON      CLEAR     67  51  56 E5        29.97S
MINOT          CLEAR     64  50  60 S5        29.97S
DICKINSON      PTCLDY    58  50  75 E9        29.98S
CROSBY         FAIR      61  54  77 S6        29.99S
BISMARCK       CLEAR     62  51  67 NE3       29.98S
GRAND FORKS    CLEAR     55  50  83 CALM      29.92S
FARGO          CLEAR     56  49  77 CALM      29.95R
BUFFALO SD       N/A     68  52  56 E10       29.92S
RAPID CITY     CLOUDY    69  59  70 E6        29.98F
$$

REGIONAL REPORTS...WYOMING/IDAHO/WASHINGTON

CITY           SKY/WX    TMP DP  RH WIND       PRES   REMARKS
GILLETTE       CLOUDY    70  48  45 SE8       29.97F
SHERIDAN       CLOUDY    77  43  29 S31G51    29.90F
BUFFALO WY     LGT RAIN  68  48  48 W8        30.07F
CODY           CLOUDY    68  50  52 S15G25    30.01F
YELLOWSTONE LA   N/A     53  51  93 VRB6      30.29R
IDAHO FALLS    LGT RAIN  65  53  65 E9        30.05R
SALMON         CLOUDY    77  41  27 E5        29.93F
BOISE          CLEAR     81  49  32 CALM      29.87R
SPOKANE        LGT RAIN  77  49  37 E7        29.88R
$$

REGIONAL REPORTS...ALBERTA

CITY           SKY/WX    TMP DP  RH WIND       PRES   REMARKS
EDMONTON       CLEAR     68  55  64 E9        29.75S
CALGARY        MOCLDY    72  52  49 NW9       29.82S
LETHBRIDGE     MOCLDY    68  54  60 S12       29.73F
MEDICINE HAT   CLEAR     79  48  34 E10       29.76S
WATERTON GATE    N/A     61  55  82 E1          N/A
CARDSTON         N/A     66  48  52 S2          N/A
MILK RIVER       N/A     79  46  31 SE14G21     N/A
ONEFOUR          N/A     70  50  49 E16         N/A
$$

REGIONAL REPORTS...SASKATCHEWAN

CITY           SKY/WX    TMP DP  RH WIND       PRES   REMARKS
SWIFT CURRENT  CLEAR     63  57  82 SE15G22   29.92S
REGINA         CLEAR     63  54  72 E7        29.98R
SASKATOON      PTCLDY    66  55  68 SE12      29.96S
CYPRESS HILLS    N/A     64  46  52 SE10G17     N/A
VAL MARIE        N/A     68  48  49 SE14        N/A
ROCKGLEN         N/A     63  50  63 E8          N/A
ASSINIBOIA       N/A     70  54  56 E13G18      N/A
$$


USA.gov is the U.S. government's official web portal to all federal, state and local government web resources and services.